International Skating Union - Official Site

Essent ISU World Cup Heerenveen
March 4-6, 2011

Draw | Lap Times | Index | World Cup

Referee: Jacques  DE KONING  (NED)
Starter: Sebastiaan  ZAMANI  (SWE)
StartTime: EndTime: Air Temp: Ice Temp: Humidity:
15:45 16:57
Result 3000m Ladies Division A
Rankings as of Mar 5 2011 7:11PM
Rank: No.: Name: Nation: Time: Behind: Points:
1 8 Martina  SÁBLIKOVÁ CZE CZE 4:06.21200m - 20.58 - (20.5)
600m - 52.76 - (32.1)
1000m - 1:24.69 - (31.9)
1400m - 1:57.16 - (32.4)
1800m - 2:29.42 - (32.2)
2200m - 3:01.84 - (32.4)
2600m - 3:33.99 - (32.1)
3000m - 4:06.21 - (32.2)
150
2 11 Stephanie  BECKERT GER GER 4:08.03200m - 21.13 - (21.1)
600m - 53.46 - (32.3)
1000m - 1:25.56 - (32.1)
1400m - 1:58.13 - (32.5)
1800m - 2:30.74 - (32.6)
2200m - 3:03.41 - (32.6)
2600m - 3:35.96 - (32.5)
3000m - 4:08.03 - (32.0)
1.82 120
3 37 Jorien  VOORHUIS NED NED 4:08.96200m - 20.00 - (20.0)
600m - 51.40 - (31.3)
1000m - 1:23.79 - (32.3)
1400m - 1:56.73 - (32.9)
1800m - 2:31.79 - (33.4)
2200m - 3:05.20 - (33.4)
2600m - 3:35.66 - (32.9)
3000m - 4:08.96 - (33.3)
2.75 105
4 16 Claudia  PECHSTEIN GER GER 4:09.60200m - 20.51 - (20.5)
600m - 52.47 - (31.9)
1000m - 1:25.00 - (32.5)
1400m - 1:57.70 - (32.7)
1800m - 2:30.51 - (32.8)
2200m - 3:03.39 - (32.8)
2600m - 3:36.45 - (33.0)
3000m - 4:09.60 - (33.1)
3.39 90
5 52 Jilleanne  ROOKARD USA USA 4:10.05200m - 20.19 - (20.2)
600m - 51.75 - (31.5)
1000m - 1:23.71 - (31.9)
1400m - 1:56.38 - (32.6)
1800m - 2:29.20 - (32.8)
2200m - 3:02.59 - (33.3)
2600m - 3:36.35 - (33.7)
3000m - 4:10.05 - (33.7)
3.84 75
6 32 Marije  JOLING NED NED 4:11.72200m - 19.98 - (19.9)
600m - 51.15 - (31.1)
1000m - 1:23.33 - (32.1)
1400m - 1:56.15 - (32.8)
1800m - 2:29.42 - (33.2)
2200m - 3:03.56 - (34.1)
2600m - 3:37.56 - (34.0)
3000m - 4:11.72 - (34.1)
5.51 45
7 20 Eriko  ISHINO JPN JPN 4:12.08200m - 20.27 - (20.2)
600m - 51.68 - (31.4)
1000m - 1:23.80 - (32.1)
1400m - 1:56.47 - (32.6)
1800m - 2:29.83 - (33.3)
2200m - 3:03.57 - (33.7)
2600m - 3:37.62 - (34.0)
3000m - 4:12.08 - (34.4)
5.87 40
8 21 Shiho  ISHIZAWA JPN JPN 4:12.22200m - 20.68 - (20.6)
600m - 52.41 - (31.7)
1000m - 1:25.36 - (32.9)
1400m - 1:58.39 - (33.0)
1800m - 2:29.69 - (32.9)
2200m - 3:02.72 - (33.0)
2600m - 3:38.71 - (35.9)
3000m - 4:12.22 - (33.5)
6.01 36
9 4 Brittany  SCHUSSLER CAN CAN 4:12.64200m - 20.64 - (20.6)
600m - 52.05 - (31.4)
1000m - 1:24.41 - (32.3)
1400m - 1:56.86 - (32.4)
1800m - 2:30.06 - (33.1)
2200m - 3:03.71 - (33.6)
2600m - 3:37.91 - (34.2)
3000m - 4:12.64 - (34.7)
6.43 32
10 10 Jennifer  BAY GER GER 4:13.50200m - 20.83 - (20.8)
600m - 51.92 - (31.0)
1000m - 1:24.42 - (32.5)
1400m - 1:57.70 - (33.2)
1800m - 2:31.48 - (33.7)
2200m - 3:05.35 - (33.8)
2600m - 3:39.66 - (34.3)
3000m - 4:13.50 - (33.8)
7.29 28
11 1 Cindy  KLASSEN CAN CAN 4:13.68200m - 20.17 - (20.1)
600m - 51.84 - (31.6)
1000m - 1:24.60 - (32.7)
1400m - 1:57.77 - (33.1)
1800m - 2:31.22 - (33.4)
2200m - 3:04.54 - (33.3)
2600m - 3:38.39 - (33.8)
3000m - 4:13.68 - (35.2)
7.47 24
12 22 Ayaka  KIKUCHI JPN JPN 4:14.03200m - 20.45 - (20.4)
600m - 51.77 - (31.3)
1000m - 1:23.52 - (31.7)
1400m - 1:56.23 - (32.7)
1800m - 2:29.67 - (33.4)
2200m - 3:03.99 - (34.3)
2600m - 3:38.75 - (34.7)
3000m - 4:14.03 - (35.2)
7.82 21
13 40 Mari  HEMMER NOR NOR 4:14.30200m - 20.77 - (20.7)
600m - 53.44 - (32.6)
1000m - 1:26.51 - (33.0)
1400m - 1:59.78 - (33.2)
1800m - 2:33.37 - (33.5)
2200m - 3:07.17 - (33.8)
2600m - 3:41.04 - (33.8)
3000m - 4:14.30 - (33.2)
8.09 18
14 19 Masako  HOZUMI JPN JPN 4:14.76200m - 20.48 - (20.4)
600m - 52.22 - (31.7)
1000m - 1:24.55 - (32.3)
1400m - 1:57.79 - (33.2)
1800m - 2:31.26 - (33.4)
2200m - 3:05.34 - (34.0)
2600m - 3:39.53 - (34.1)
3000m - 4:14.76 - (35.2)
8.55 16
15 14 Kathrin  MATTSCHERODT GER GER 4:16.61200m - 21.04 - (21.0)
600m - 53.40 - (32.3)
1000m - 1:26.56 - (33.1)
1400m - 2:00.03 - (33.4)
1800m - 2:33.90 - (33.8)
2200m - 3:08.09 - (34.1)
2600m - 3:42.53 - (34.4)
3000m - 4:16.61 - (34.0)
10.40 14
16 42 Luiza  ZLOTKOWSKA POL POL 4:16.81200m - 20.65 - (20.6)
600m - 52.56 - (31.9)
1000m - 1:25.25 - (32.6)
1400m - 1:58.57 - (33.3)
1800m - 2:32.77 - (34.2)
2200m - 3:07.28 - (34.5)
2600m - 3:42.23 - (34.9)
3000m - 4:16.81 - (34.5)
10.60 12
17 45 Olga  GRAF RUS RUS 4:21.25200m - 21.77 - (21.7)
600m - 55.01 - (33.2)
1000m - 1:28.67 - (33.6)
1400m - 2:02.59 - (33.9)
1800m - 2:36.96 - (34.3)
2200m - 3:11.57 - (34.6)
2600m - 3:46.38 - (34.8)
3000m - 4:21.25 - (34.8)
15.04 10
18 9 Cathrine  GRAGE DEN DEN 4:21.89200m - 21.63 - (21.6)
600m - 54.01 - (32.3)
1000m - 1:27.59 - (33.5)
1400m - 2:02.03 - (34.4)
1800m - 2:36.76 - (34.7)
2200m - 3:11.53 - (34.7)
2600m - 3:46.44 - (34.9)
3000m - 4:21.89 - (35.4)
15.68 8